| time (UTC) | temp F | wind direction | speed MPH | gust MPH | rain 1hr in | rain 24hr in | rain mn in | humidity % | barometer mb |
| 20260831191520 | 64 | 171 | 4.0 | 7.0 | 0.00 | 0.20 | 0.20 | 90 | 962.6 |
| 20260831190018 | 64 | 166 | 2.0 | 8.0 | 0.00 | 0.20 | 0.20 | 90 | 962.9 |
| 20260831184523 | 64 | 177 | 2.0 | 5.0 | 0.01 | 0.20 | 0.20 | 90 | 962.9 |
| 20260831183015 | 64 | 138 | 0.0 | 6.0 | 0.02 | 0.20 | 0.20 | 90 | 963.2 |
| 20260831181519 | 64 | 188 | 2.0 | 6.0 | 0.04 | 0.20 | 0.20 | 89 | 963.5 |
| 20260831180013 | 64 | 198 | 2.0 | 6.0 | 0.06 | 0.20 | 0.20 | 89 | 963.5 |
| 20260831174511 | 64 | 195 | 2.0 | 7.0 | 0.08 | 0.19 | 0.19 | 89 | 963.7 |
| 20260831173010 | 64 | 175 | 3.0 | 7.0 | 0.08 | 0.18 | 0.18 | 89 | 963.8 |
| 20260831171510 | 65 | 171 | 0.0 | 3.0 | 0.11 | 0.16 | 0.16 | 88 | 963.9 |
| 20260831170011 | 65 | 190 | 0.0 | 4.0 | 0.13 | 0.14 | 0.14 | 88 | 964.1 |
| 20260831164508 | 65 | 190 | 0.0 | 1.0 | 0.11 | 0.11 | 0.11 | 88 | 964.2 |
| 20260831163011 | 65 | 190 | 0.0 | 0.0 | 0.10 | 0.10 | 0.10 | 87 | 964.2 |
| 20260831161512 | 65 | 190 | 0.0 | 2.0 | 0.05 | 0.05 | 0.05 | 86 | 964.3 |
| 20260831160008 | 65 | 190 | 0.0 | 1.0 | 0.01 | 0.01 | 0.01 | 85 | 964.5 |
| 20260831154513 | 65 | 190 | 0.0 | 1.0 | 0.00 | 0.00 | 0.00 | 85 | 964.4 |
| 20260831153006 | 65 | 196 | 0.0 | 5.0 | 0.00 | 0.00 | 0.00 | 85 | 964.4 |
| 20260831151505 | 65 | 198 | 1.0 | 5.0 | 0.00 | 0.00 | 0.00 | 85 | 964.3 |
| 20260831150009 | 65 | 169 | 1.0 | 4.0 | 0.00 | 0.00 | 0.00 | 86 | 964.2 |
| 20260831144614 | 64 | 118 | 0.0 | 2.0 | 0.00 | 0.00 | 0.00 | 87 | 964.2 |
| 20260831143055 | 64 | 165 | 0.0 | 4.0 | 0.00 | 0.00 | 0.00 | 88 | 964.3 |
| 20260831141553 | 64 | 124 | 0.0 | 3.0 | 0.00 | 0.00 | 0.00 | 90 | 963.9 |
| 20260831140051 | 63 | 124 | 1.0 | 4.0 | 0.00 | 0.00 | 0.00 | 90 | 964.3 |
| 20260831134556 | 63 | 177 | 1.0 | 3.0 | 0.00 | 0.00 | 0.00 | 90 | 964.3 |
| 20260831133047 | 62 | 193 | 1.0 | 5.0 | 0.00 | 0.00 | 0.00 | 91 | 964.3 |
| 20260831131547 | 62 | 188 | 1.0 | 5.0 | 0.00 | 0.00 | 0.00 | 90 | 964.5 |
| 20260831130050 | 62 | 248 | 1.0 | 3.0 | 0.00 | 0.00 | 0.00 | 91 | 964.4 |
| 20260831124544 | 61 | 232 | 0.0 | 4.0 | 0.00 | 0.00 | 0.00 | 91 | 964.2 |
| 20260831123042 | 60 | 245 | 0.0 | 2.0 | 0.00 | 0.00 | 0.00 | 90 | 964.3 |
| 20260831121539 | 60 | 246 | 0.0 | 1.0 | 0.00 | 0.00 | 0.00 | 90 | 964.5 |
| 20260831120037 | 60 | 246 | 0.0 | 0.0 | 0.00 | 0.00 | 0.00 | 90 | 964.5 |
| 20260831114535 | 59 | 246 | 0.0 | 0.0 | 0.00 | 0.00 | 0.00 | 90 | 964.3 |
| 20260831113031 | 59 | 246 | 0.0 | 1.0 | 0.00 | 0.00 | 0.00 | 90 | 964.3 |
| 20260831111540 | 59 | 246 | 0.0 | 2.0 | 0.00 | 0.00 | 0.00 | 90 | 964.3 |
| 20260831110030 | 59 | 246 | 0.0 | 1.0 | 0.00 | 0.00 | 0.00 | 90 | 964.0 |
| 20260831104530 | 59 | 245 | 0.0 | 1.0 | 0.00 | 0.00 | 0.00 | 90 | 963.9 |
| 20260831103027 | 59 | 245 | 0.0 | 3.0 | 0.00 | 0.00 | 0.00 | 90 | 963.7 |
| 20260831101526 | 59 | 245 | 1.0 | 3.0 | 0.00 | 0.00 | 0.00 | 90 | 963.8 |
| 20260831100025 | 58 | 284 | 0.0 | 2.0 | 0.00 | 0.00 | 0.00 | 90 | 963.8 |
| 20260831094526 | 58 | 286 | 0.0 | 1.0 | 0.00 | 0.00 | 0.00 | 90 | 963.7 |
| 20260831093027 | 58 | 286 | 0.0 | 1.0 | 0.00 | 0.00 | 0.00 | 90 | 963.7 |
| 20260831091522 | 58 | 286 | 0.0 | 2.0 | 0.00 | 0.00 | 0.00 | 90 | 964.0 |
| 20260831090020 | 59 | 273 | 0.0 | 1.0 | 0.00 | 0.00 | 0.00 | 90 | 963.9 |
| 20260831084532 | 60 | 273 | 0.0 | 1.0 | 0.00 | 0.00 | 0.00 | 90 | 963.7 |
| 20260831083017 | 60 | 273 | 1.0 | 2.0 | 0.00 | 0.00 | 0.00 | 90 | 963.8 |
| 20260831081523 | 60 | 273 | 0.0 | 0.0 | 0.00 | 0.00 | 0.00 | 90 | 963.6 |
| 20260831080016 | 60 | 273 | 0.0 | 0.0 | 0.00 | 0.00 | 0.00 | 90 | 963.6 |
| 20260831074531 | 60 | 273 | 0.0 | 0.0 | 0.00 | 0.00 | 0.00 | 90 | 963.7 |
| 20260831073038 | 60 | 273 | 1.0 | 2.0 | 0.00 | 0.00 | 0.00 | 90 | 963.6 |
| 20260831071513 | 60 | 273 | 0.0 | 0.0 | 0.00 | 0.00 | 0.00 | 90 | 963.6 |
| 20260831070016 | 60 | 273 | 0.0 | 0.0 | 0.00 | 0.00 | 0.00 | 89 | 963.8 |
| 20260831064526 | 60 | 273 | 0.0 | 0.0 | 0.00 | 0.00 | 0.00 | 89 | 963.7 |
| 20260831063016 | 60 | 273 | 0.0 | 0.0 | 0.00 | 0.00 | 0.00 | 89 | 963.8 |
| 20260831061508 | 61 | 273 | 0.0 | 0.0 | 0.00 | 0.00 | 0.00 | 89 | 963.9 |
| 20260831060007 | 61 | 273 | 0.0 | 0.0 | 0.00 | 0.00 | 0.00 | 89 | 964.2 |
| 20260831054505 | 61 | 273 | 0.0 | 0.0 | 0.00 | 0.00 | 0.00 | 89 | 964.3 |
| 20260831053015 | 61 | 273 | 0.0 | 0.0 | 0.00 | 0.00 | 0.00 | 89 | 964.3 |
| 20260831051506 | 61 | 273 | 0.0 | 0.0 | 0.00 | 0.00 | 0.00 | 89 | 964.2 |
| 20260831050009 | 61 | 273 | 0.0 | 0.0 | 0.00 | 0.00 | 0.00 | 88 | 964.2 |
| 20260831044502 | 62 | 273 | 0.0 | 2.0 | 0.00 | 0.00 | 0.00 | 88 | 964.3 |
| 20260831043103 | 62 | 273 | 0.0 | 1.0 | 0.00 | 0.00 | 0.00 | 88 | 964.2 |
| 20260831041607 | 62 | 273 | 0.0 | 2.0 | 0.00 | 0.00 | 0.00 | 87 | 964.3 |
| 20260831040056 | 62 | 273 | 0.0 | 0.0 | 0.00 | 0.00 | 0.00 | 87 | 964.1 |
| 20260831034554 | 63 | 273 | 0.0 | 0.0 | 0.00 | 0.00 | 0.00 | 87 | 964.2 |
| 20260831033054 | 63 | 273 | 0.0 | 0.0 | 0.00 | 0.00 | 0.00 | 87 | 964.3 |
| 20260831031555 | 63 | 273 | 0.0 | 0.0 | 0.00 | 0.00 | 0.00 | 87 | 964.2 |
| 20260831030058 | 63 | 273 | 0.0 | 0.0 | 0.00 | 0.00 | 0.00 | 87 | 964.4 |
| 20260831024555 | 63 | 273 | 0.0 | 0.0 | 0.00 | 0.00 | 0.00 | 87 | 964.3 |
| 20260831023052 | 63 | 273 | 0.0 | 2.0 | 0.00 | 0.00 | 0.00 | 87 | 964.5 |
| 20260831021552 | 63 | 273 | 0.0 | 2.0 | 0.00 | 0.00 | 0.00 | 87 | 964.3 |
| 20260831020052 | 63 | 273 | 0.0 | 2.0 | 0.00 | 0.00 | 0.00 | 87 | 964.4 |
| 20260831014552 | 63 | 273 | 1.0 | 2.0 | 0.00 | 0.00 | 0.00 | 86 | 964.2 |
| 20260831013050 | 63 | 273 | 0.0 | 3.0 | 0.00 | 0.00 | 0.00 | 86 | 964.1 |
| 20260831011550 | 63 | 273 | 0.0 | 3.0 | 0.00 | 0.00 | 0.00 | 86 | 964.3 |
| 20260831010049 | 64 | 267 | 1.0 | 4.0 | 0.00 | 0.00 | 0.00 | 85 | 964.1 |
| 20260831004548 | 64 | 269 | 1.0 | 4.0 | 0.00 | 0.00 | 0.00 | 85 | 963.9 |
| 20260831003047 | 64 | 279 | 0.0 | 3.0 | 0.00 | 0.00 | 0.00 | 84 | 963.6 |
| 20260831001546 | 64 | 279 | 0.0 | 3.0 | 0.00 | 0.00 | 0.00 | 84 | 963.4 |
| 20260831000056 | 65 | 266 | 3.0 | 8.0 | 0.00 | 0.00 | 0.00 | 84 | 963.2 |
| 20260830234549 | 65 | 282 | 2.0 | 8.0 | 0.00 | 0.00 | 0.00 | 83 | 963.1 |
| 20260830233056 | 65 | 268 | 2.0 | 9.0 | 0.00 | 0.00 | 0.00 | 83 | 963.2 |
| 20260830231545 | 65 | 272 | 2.0 | 10.0 | 0.00 | 0.00 | 0.00 | 83 | 963.0 |
| 20260830230044 | 66 | 271 | 3.0 | 7.0 | 0.00 | 0.00 | 0.00 | 82 | 963.1 |
| 20260830224545 | 66 | 279 | 2.0 | 7.0 | 0.00 | 0.00 | 0.00 | 82 | 963.2 |
| 20260830223043 | 66 | 263 | 3.0 | 6.0 | 0.00 | 0.00 | 0.00 | 82 | 963.1 |
| 20260830221548 | 66 | 269 | 3.0 | 6.0 | 0.00 | 0.00 | 0.00 | 82 | 962.9 |
| 20260830220057 | 66 | 284 | 0.0 | 4.0 | 0.00 | 0.00 | 0.00 | 81 | 963.0 |
| 20260830214542 | 67 | 261 | 2.0 | 7.0 | 0.00 | 0.00 | 0.00 | 81 | 963.0 |
| 20260830213044 | 67 | 260 | 4.0 | 7.0 | 0.00 | 0.00 | 0.00 | 81 | 963.0 |
| 20260830211547 | 67 | 261 | 3.0 | 7.0 | 0.00 | 0.00 | 0.00 | 81 | 963.2 |
| 20260830210042 | 67 | 272 | 4.0 | 8.0 | 0.00 | 0.00 | 0.00 | 80 | 963.1 |
| 20260830204553 | 67 | 273 | 2.0 | 6.0 | 0.00 | 0.00 | 0.00 | 80 | 963.0 |
| 20260830203039 | 67 | 265 | 1.0 | 2.0 | 0.00 | 0.00 | 0.00 | 80 | 963.1 |
| 20260830201546 | 67 | 263 | 1.0 | 5.0 | 0.00 | 0.00 | 0.00 | 79 | 963.2 |
| 20260830200043 | 67 | 284 | 1.0 | 6.0 | 0.00 | 0.00 | 0.00 | 79 | 963.1 |
| 20260830194540 | 68 | 301 | 3.0 | 8.0 | 0.00 | 0.00 | 0.00 | 78 | 963.0 |
| 20260830193035 | 69 | 287 | 4.0 | 12.0 | 0.00 | 0.00 | 0.00 | 77 | 963.2 |